Time,TemperatureF,DewpointF,PressureIn,WindDirection,WindDirectionDegrees,WindSpeedMPH,WindSpeedGustMPH,Humidity,HourlyPrecipIn,Conditions,Clouds,dailyrainin,SoftwareType,DateUTC
2013-08-28 00:00:00,67.2,64.2,30.00,South,182,0.0,0.0,90,0.00,,,0.00,Wunderground v.1.15,2013-08-28 04:00:00,
2013-08-28 00:05:00,67.1,64.1,30.00,South,182,0.0,0.0,90,0.00,,,0.00,Wunderground v.1.15,2013-08-28 04:05:00,
2013-08-28 00:10:00,66.9,63.9,30.00,South,182,0.0,0.0,90,0.00,,,0.00,Wunderground v.1.15,2013-08-28 04:10:00,
2013-08-28 00:15:00,66.8,63.8,30.00,South,182,0.0,0.0,90,0.00,,,0.00,Wunderground v.1.15,2013-08-28 04:15:00,
2013-08-28 00:20:00,66.8,63.8,30.00,South,182,0.0,0.0,90,0.00,,,0.00,Wunderground v.1.15,2013-08-28 04:20:00,
2013-08-28 00:30:00,66.8,63.8,30.00,South,182,0.0,0.0,90,0.00,,,0.00,Wunderground v.1.15,2013-08-28 04:30:00,
2013-08-28 00:35:00,66.8,63.8,30.00,South,182,0.0,0.0,90,0.00,,,0.00,Wunderground v.1.15,2013-08-28 04:35:00,
2013-08-28 00:40:00,66.7,63.7,30.00,South,182,0.0,0.0,90,0.00,,,0.00,Wunderground v.1.15,2013-08-28 04:40:00,
2013-08-28 00:45:00,66.7,63.7,30.00,South,182,0.0,0.0,90,0.00,,,0.00,Wunderground v.1.15,2013-08-28 04:45:00,
2013-08-28 00:50:00,66.7,63.7,30.00,South,182,0.0,0.0,90,0.00,,,0.00,Wunderground v.1.15,2013-08-28 04:50:00,
2013-08-28 00:55:00,66.8,63.8,30.00,South,182,0.0,0.0,90,0.00,,,0.00,Wunderground v.1.15,2013-08-28 04:55:00,
2013-08-28 01:00:00,66.8,63.8,30.00,South,182,0.0,0.0,90,0.00,,,0.00,Wunderground v.1.15,2013-08-28 05:00:00,
2013-08-28 01:05:00,66.8,63.8,29.99,South,182,0.0,0.0,90,0.00,,,0.00,Wunderground v.1.15,2013-08-28 05:05:00,
2013-08-28 01:10:00,66.8,63.8,29.99,South,182,0.0,0.0,90,0.00,,,0.00,Wunderground v.1.15,2013-08-28 05:10:00,
2013-08-28 01:15:00,66.6,63.6,30.00,South,182,0.0,0.0,90,0.00,,,0.00,Wunderground v.1.15,2013-08-28 05:15:00,
2013-08-28 01:25:00,66.2,63.2,30.00,South,182,0.0,0.0,90,0.00,,,0.00,Wunderground v.1.15,2013-08-28 05:25:00,
2013-08-28 01:30:00,66.1,63.1,29.99,South,182,0.0,0.0,90,0.00,,,0.00,Wunderground v.1.15,2013-08-28 05:30:00,
2013-08-28 01:35:00,65.9,62.9,29.99,South,182,0.0,0.0,90,0.00,,,0.00,Wunderground v.1.15,2013-08-28 05:35:00,
2013-08-28 01:40:00,65.9,62.9,29.99,South,182,0.0,0.0,90,0.00,,,0.00,Wunderground v.1.15,2013-08-28 05:40:00,
2013-08-28 01:45:00,65.9,62.9,29.99,South,182,0.0,0.0,90,0.00,,,0.00,Wunderground v.1.15,2013-08-28 05:45:00,
2013-08-28 01:50:00,66.0,63.0,29.98,South,175,0.0,0.0,90,0.00,,,0.00,Wunderground v.1.15,2013-08-28 05:50:00,
2013-08-28 01:55:00,66.2,63.2,29.98,South,170,0.0,0.0,90,0.00,,,0.00,Wunderground v.1.15,2013-08-28 05:55:00,
2013-08-28 02:00:00,66.6,63.6,29.98,SSW,200,0.0,0.0,90,0.00,,,0.00,Wunderground v.1.15,2013-08-28 06:00:00,
2013-08-28 02:05:00,66.7,63.7,29.98,SSE,165,0.0,0.0,90,0.00,,,0.00,Wunderground v.1.15,2013-08-28 06:05:00,
2013-08-28 02:10:00,66.8,63.8,29.98,SW,217,0.0,0.0,90,0.00,,,0.00,Wunderground v.1.15,2013-08-28 06:10:00,
2013-08-28 02:20:00,67.3,64.3,29.98,SSW,206,1.0,1.0,90,0.00,,,0.00,Wunderground v.1.15,2013-08-28 06:20:00,
2013-08-28 02:25:00,67.4,64.4,29.98,SSW,206,0.0,1.0,90,0.00,,,0.00,Wunderground v.1.15,2013-08-28 06:25:00,
2013-08-28 02:35:00,67.2,64.2,29.97,SSW,206,0.0,0.0,90,0.00,,,0.00,Wunderground v.1.15,2013-08-28 06:35:00,
2013-08-28 02:45:00,67.0,64.0,29.98,SSW,206,0.0,0.0,90,0.00,,,0.00,Wunderground v.1.15,2013-08-28 06:45:00,
2013-08-28 02:50:00,66.9,63.9,29.98,SSW,196,0.0,0.0,90,0.00,,,0.00,Wunderground v.1.15,2013-08-28 06:50:00,
2013-08-28 02:55:00,66.9,63.9,29.98,SSW,196,0.0,0.0,90,0.00,,,0.00,Wunderground v.1.15,2013-08-28 06:55:00,
2013-08-28 03:00:00,66.8,63.8,29.98,SSW,196,0.0,0.0,90,0.00,,,0.00,Wunderground v.1.15,2013-08-28 07:00:00,
2013-08-28 03:05:00,66.7,63.7,29.98,SSW,196,0.0,0.0,90,0.00,,,0.00,Wunderground v.1.15,2013-08-28 07:05:00,
2013-08-28 03:10:00,66.7,63.7,29.98,SSW,196,0.0,0.0,90,0.00,,,0.00,Wunderground v.1.15,2013-08-28 07:10:00,
2013-08-28 03:15:00,66.6,63.6,29.98,SSW,196,0.0,0.0,90,0.00,,,0.00,Wunderground v.1.15,2013-08-28 07:15:00,
2013-08-28 03:20:00,66.4,63.4,29.98,SSW,196,0.0,0.0,90,0.00,,,0.00,Wunderground v.1.15,2013-08-28 07:20:00,
2013-08-28 03:25:00,66.2,63.2,29.98,SSW,196,0.0,0.0,90,0.00,,,0.00,Wunderground v.1.15,2013-08-28 07:25:00,
2013-08-28 03:35:00,66.0,63.0,29.98,SSW,196,0.0,0.0,90,0.00,,,0.00,Wunderground v.1.15,2013-08-28 07:35:00,
2013-08-28 03:40:00,65.9,62.9,29.98,SSW,196,0.0,0.0,90,0.00,,,0.00,Wunderground v.1.15,2013-08-28 07:40:00,
2013-08-28 03:45:00,65.6,62.6,29.98,SSW,196,0.0,0.0,90,0.00,,,0.00,Wunderground v.1.15,2013-08-28 07:45:00,
2013-08-28 03:50:00,65.4,62.4,29.98,SSW,196,0.0,0.0,90,0.00,,,0.00,Wunderground v.1.15,2013-08-28 07:50:00,
2013-08-28 04:00:00,64.9,61.9,29.98,SSW,196,0.0,0.0,90,0.00,,,0.00,Wunderground v.1.15,2013-08-28 08:00:00,
2013-08-28 04:05:00,64.7,61.7,29.98,SSW,196,0.0,0.0,90,0.00,,,0.00,Wunderground v.1.15,2013-08-28 08:05:00,
2013-08-28 04:10:00,64.6,61.6,29.98,SSW,196,0.0,0.0,90,0.00,,,0.00,Wunderground v.1.15,2013-08-28 08:10:00,
2013-08-28 04:20:00,64.3,61.0,29.98,SSW,196,0.0,0.0,89,0.00,,,0.00,Wunderground v.1.15,2013-08-28 08:20:00,
2013-08-28 04:25:00,64.1,60.8,29.98,SSW,196,0.0,0.0,89,0.00,,,0.00,Wunderground v.1.15,2013-08-28 08:25:00,
2013-08-28 04:30:00,64.0,60.7,29.98,SSW,196,0.0,0.0,89,0.00,,,0.00,Wunderground v.1.15,2013-08-28 08:30:00,
2013-08-28 04:40:00,63.8,60.5,29.98,SSW,196,0.0,0.0,89,0.00,,,0.00,Wunderground v.1.15,2013-08-28 08:40:00,
2013-08-28 04:45:00,63.8,60.2,29.98,SSW,196,0.0,0.0,88,0.00,,,0.00,Wunderground v.1.15,2013-08-28 08:45:00,
2013-08-28 04:55:00,63.7,60.1,29.98,SSW,196,0.0,0.0,88,0.00,,,0.00,Wunderground v.1.15,2013-08-28 08:55:00,
2013-08-28 05:00:00,63.6,60.0,29.98,SSW,196,0.0,0.0,88,0.00,,,0.00,Wunderground v.1.15,2013-08-28 09:00:00,
2013-08-28 05:05:00,63.6,60.0,29.98,SSW,196,0.0,0.0,88,0.00,,,0.00,Wunderground v.1.15,2013-08-28 09:05:00,
2013-08-28 05:10:00,63.6,59.7,29.98,SSW,196,0.0,0.0,87,0.00,,,0.00,Wunderground v.1.15,2013-08-28 09:10:00,
2013-08-28 05:20:00,63.5,59.9,29.98,SSW,196,0.0,0.0,88,0.00,,,0.00,Wunderground v.1.15,2013-08-28 09:20:00,
2013-08-28 05:25:00,63.4,59.5,29.99,SSW,196,0.0,0.0,87,0.00,,,0.00,Wunderground v.1.15,2013-08-28 09:25:00,
2013-08-28 05:30:00,63.4,59.5,29.98,SSW,196,0.0,0.0,87,0.00,,,0.00,Wunderground v.1.15,2013-08-28 09:30:00,
2013-08-28 05:40:00,63.2,59.3,29.99,SSW,196,0.0,0.0,87,0.00,,,0.00,Wunderground v.1.15,2013-08-28 09:40:00,
2013-08-28 05:45:00,63.2,59.3,29.99,SSW,196,0.0,0.0,87,0.00,,,0.00,Wunderground v.1.15,2013-08-28 09:45:00,
2013-08-28 05:50:00,63.1,59.2,29.99,SSW,196,0.0,0.0,87,0.00,,,0.00,Wunderground v.1.15,2013-08-28 09:50:00,
2013-08-28 06:00:00,63.2,59.3,29.99,SSW,196,0.0,0.0,87,0.00,,,0.00,Wunderground v.1.15,2013-08-28 10:00:00,
2013-08-28 06:05:00,63.0,59.4,30.00,SSW,196,0.0,0.0,88,0.00,,,0.00,Wunderground v.1.15,2013-08-28 10:05:00,
2013-08-28 06:15:00,62.7,59.1,30.00,SSW,196,0.0,0.0,88,0.00,,,0.00,Wunderground v.1.15,2013-08-28 10:15:00,
2013-08-28 06:20:00,62.7,58.8,30.00,SSW,196,0.0,0.0,87,0.00,,,0.00,Wunderground v.1.15,2013-08-28 10:20:00,
2013-08-28 06:25:00,62.9,58.6,30.00,SSW,196,0.0,0.0,86,0.00,,,0.00,Wunderground v.1.15,2013-08-28 10:25:00,
2013-08-28 06:30:00,63.2,58.6,30.00,SSW,196,0.0,0.0,85,0.00,,,0.00,Wunderground v.1.15,2013-08-28 10:30:00,
2013-08-28 06:40:00,63.8,59.2,30.01,SSW,196,0.0,0.0,85,0.00,,,0.00,Wunderground v.1.15,2013-08-28 10:40:00,
2013-08-28 06:45:00,64.0,59.4,30.01,SSW,196,0.0,0.0,85,0.00,,,0.00,Wunderground v.1.15,2013-08-28 10:45:00,
2013-08-28 06:50:00,64.2,59.6,30.01,SSW,196,0.0,0.0,85,0.00,,,0.00,Wunderground v.1.15,2013-08-28 10:50:00,
2013-08-28 06:55:00,64.3,59.7,30.01,SSW,196,0.0,0.0,85,0.00,,,0.00,Wunderground v.1.15,2013-08-28 10:55:00,
2013-08-28 07:00:00,64.5,60.2,30.00,SSW,196,0.0,0.0,86,0.00,,,0.00,Wunderground v.1.15,2013-08-28 11:00:00,
2013-08-28 07:05:00,64.7,60.7,30.00,SSW,196,0.0,0.0,87,0.00,,,0.00,Wunderground v.1.15,2013-08-28 11:05:00,
2013-08-28 07:10:00,65.0,61.0,30.00,SSW,196,0.0,0.0,87,0.00,,,0.00,Wunderground v.1.15,2013-08-28 11:10:00,
2013-08-28 07:20:00,65.4,62.4,30.00,SSW,196,0.0,0.0,90,0.00,,,0.00,Wunderground v.1.15,2013-08-28 11:20:00,
2013-08-28 07:25:00,65.6,62.9,30.00,SSW,196,0.0,0.0,91,0.00,,,0.00,Wunderground v.1.15,2013-08-28 11:25:00,
2013-08-28 07:35:00,66.0,63.3,30.01,SSW,196,0.0,0.0,91,0.00,,,0.00,Wunderground v.1.15,2013-08-28 11:35:00,
2013-08-28 07:45:00,66.6,63.3,30.00,SSW,196,0.0,0.0,89,0.00,,,0.00,Wunderground v.1.15,2013-08-28 11:45:00,
2013-08-28 07:50:00,67.1,63.4,30.00,SSW,196,0.0,0.0,88,0.00,,,0.00,Wunderground v.1.15,2013-08-28 11:50:00,
2013-08-28 08:00:00,68.4,64.4,30.00,SSW,196,0.0,0.0,87,0.00,,,0.00,Wunderground v.1.15,2013-08-28 12:00:00,
2013-08-28 08:05:00,68.9,64.5,30.00,SSW,196,0.0,0.0,86,0.00,,,0.00,Wunderground v.1.15,2013-08-28 12:05:00,
2013-08-28 08:10:00,69.5,64.8,30.00,SSW,196,0.0,0.0,85,0.00,,,0.00,Wunderground v.1.15,2013-08-28 12:10:00,
2013-08-28 08:15:00,69.9,65.2,30.00,SSW,196,0.0,0.0,85,0.00,,,0.00,Wunderground v.1.15,2013-08-28 12:15:00,
2013-08-28 08:20:00,70.4,65.3,30.00,SSW,196,0.0,0.0,84,0.00,,,0.00,Wunderground v.1.15,2013-08-28 12:20:00,
2013-08-28 08:25:00,71.0,65.9,30.00,SSW,196,0.0,0.0,84,0.00,,,0.00,Wunderground v.1.15,2013-08-28 12:25:00,
2013-08-28 08:30:00,71.4,65.3,30.00,SSW,196,0.0,0.0,81,0.00,,,0.00,Wunderground v.1.15,2013-08-28 12:30:00,
2013-08-28 08:35:00,71.5,66.1,30.00,SSW,196,0.0,0.0,83,0.00,,,0.00,Wunderground v.1.15,2013-08-28 12:35:00,
2013-08-28 08:45:00,71.8,65.7,30.00,SSW,196,0.0,0.0,81,0.00,,,0.00,Wunderground v.1.15,2013-08-28 12:45:00,
2013-08-28 08:50:00,71.9,66.1,30.00,NNW,331,0.0,0.0,82,0.00,,,0.00,Wunderground v.1.15,2013-08-28 12:50:00,
2013-08-28 09:00:00,71.5,66.1,30.00,NNW,331,0.0,0.0,83,0.00,,,0.00,Wunderground v.1.15,2013-08-28 13:00:00,
2013-08-28 09:05:00,71.6,66.8,30.00,NNW,331,0.0,0.0,85,0.00,,,0.00,Wunderground v.1.15,2013-08-28 13:05:00,
2013-08-28 09:10:00,71.7,66.3,30.01,NNW,331,0.0,0.0,83,0.00,,,0.00,Wunderground v.1.15,2013-08-28 13:10:00,
2013-08-28 09:15:00,71.9,66.5,30.01,NW,315,0.0,0.0,83,0.00,,,0.00,Wunderground v.1.15,2013-08-28 13:15:00,
2013-08-28 09:25:00,72.2,66.4,30.01,NNW,329,1.0,2.0,82,0.00,,,0.00,Wunderground v.1.15,2013-08-28 13:25:00,
2013-08-28 09:35:00,72.8,66.6,30.01,NW,318,0.0,1.0,81,0.00,,,0.00,Wunderground v.1.15,2013-08-28 13:35:00,
2013-08-28 09:40:00,73.1,67.3,30.01,NNE,22,0.0,0.0,82,0.00,,,0.00,Wunderground v.1.15,2013-08-28 13:40:00,
2013-08-28 09:50:00,73.5,66.9,30.01,North,360,1.0,1.0,80,0.00,,,0.00,Wunderground v.1.15,2013-08-28 13:50:00,
2013-08-28 09:55:00,74.1,67.5,30.01,North,355,0.0,3.0,80,0.00,,,0.00,Wunderground v.1.15,2013-08-28 13:55:00,
2013-08-28 10:00:00,74.5,67.6,30.01,North,355,1.0,1.0,79,0.00,,,0.00,Wunderground v.1.15,2013-08-28 14:00:00,
2013-08-28 10:05:00,74.8,67.8,30.01,North,350,1.0,1.0,79,0.00,,,0.00,Wunderground v.1.15,2013-08-28 14:05:00,
2013-08-28 10:10:00,74.9,67.6,30.01,NNW,329,1.0,1.0,78,0.00,,,0.00,Wunderground v.1.15,2013-08-28 14:10:00,
2013-08-28 10:15:00,75.2,68.2,30.01,NW,323,1.0,1.0,79,0.00,,,0.00,Wunderground v.1.15,2013-08-28 14:15:00,
2013-08-28 10:20:00,75.8,68.8,30.01,NW,321,0.0,1.0,79,0.00,,,0.00,Wunderground v.1.15,2013-08-28 14:20:00,
2013-08-28 10:30:00,76.2,68.5,30.01,NW,311,1.0,1.0,77,0.00,,,0.00,Wunderground v.1.15,2013-08-28 14:30:00,
2013-08-28 10:40:00,76.2,68.8,30.01,NNW,342,0.0,0.0,78,0.00,,,0.00,Wunderground v.1.15,2013-08-28 14:40:00,
2013-08-28 10:45:00,76.0,69.0,30.01,NNW,342,0.0,0.0,79,0.00,,,0.00,Wunderground v.1.15,2013-08-28 14:45:00,
2013-08-28 10:50:00,76.1,69.5,30.01,NNW,342,0.0,0.0,80,0.00,,,0.00,Wunderground v.1.15,2013-08-28 14:50:00,
2013-08-28 10:55:00,76.1,69.5,30.01,NNW,342,0.0,0.0,80,0.00,,,0.00,Wunderground v.1.15,2013-08-28 14:55:00,
2013-08-28 11:00:00,75.8,69.6,30.01,NNW,342,0.0,0.0,81,0.00,,,0.00,Wunderground v.1.15,2013-08-28 15:00:00,
2013-08-28 11:05:00,75.5,69.3,30.01,NNW,342,0.0,0.0,81,0.00,,,0.00,Wunderground v.1.15,2013-08-28 15:05:00,
2013-08-28 11:10:00,75.0,69.5,30.01,NNW,342,0.0,0.0,83,0.00,,,0.00,Wunderground v.1.15,2013-08-28 15:10:00,
2013-08-28 11:15:00,74.5,69.3,30.01,NNW,342,0.0,0.0,84,0.00,,,0.00,Wunderground v.1.15,2013-08-28 15:15:00,
2013-08-28 11:20:00,74.2,69.4,30.01,NNW,342,0.0,0.0,85,0.00,,,0.00,Wunderground v.1.15,2013-08-28 15:20:00,
2013-08-28 11:25:00,74.0,69.5,30.01,NNW,342,0.0,0.0,86,0.00,,,0.00,Wunderground v.1.15,2013-08-28 15:25:00,
2013-08-28 11:30:00,73.8,69.3,30.01,NNW,342,0.0,0.0,86,0.00,,,0.00,Wunderground v.1.15,2013-08-28 15:30:00,
2013-08-28 11:35:00,73.7,69.2,30.00,NNW,342,0.0,0.0,86,0.00,,,0.00,Wunderground v.1.15,2013-08-28 15:35:00,
2013-08-28 11:40:00,73.5,69.4,30.00,NNW,342,0.0,0.0,87,0.00,,,0.00,Wunderground v.1.15,2013-08-28 15:40:00,
2013-08-28 11:50:00,73.3,69.2,30.00,NNW,342,0.0,0.0,87,0.00,,,0.00,Wunderground v.1.15,2013-08-28 15:50:00,
2013-08-28 11:55:00,73.7,69.9,30.00,NNW,342,0.0,0.0,88,0.00,,,0.00,Wunderground v.1.15,2013-08-28 15:55:00,
2013-08-28 12:00:00,74.6,69.1,30.00,SE,142,0.0,1.0,83,0.00,,,0.00,Wunderground v.1.15,2013-08-28 16:00:00,
2013-08-28 12:05:00,75.8,69.9,30.00,SE,142,0.0,1.0,82,0.00,,,0.00,Wunderground v.1.15,2013-08-28 16:05:00,
2013-08-28 12:10:00,77.2,70.2,29.99,NW,323,0.0,0.0,79,0.00,,,0.00,Wunderground v.1.15,2013-08-28 16:10:00,
2013-08-28 12:15:00,78.2,71.2,29.99,NW,316,1.0,2.0,79,0.00,,,0.00,Wunderground v.1.15,2013-08-28 16:15:00,
2013-08-28 12:25:00,79.8,70.0,29.99,ESE,107,1.0,1.0,72,0.00,,,0.00,Wunderground v.1.15,2013-08-28 16:25:00,
2013-08-28 12:30:00,80.1,69.4,29.99,SSW,205,1.0,2.0,70,0.00,,,0.00,Wunderground v.1.15,2013-08-28 16:30:00,
2013-08-28 12:35:00,79.7,69.0,29.99,South,186,1.0,2.0,70,0.00,,,0.00,Wunderground v.1.15,2013-08-28 16:35:00,
2013-08-28 12:45:00,79.6,68.5,29.98,SSE,161,0.0,1.0,69,0.00,,,0.00,Wunderground v.1.15,2013-08-28 16:45:00,
2013-08-28 12:50:00,79.5,69.3,29.98,SSE,154,0.0,1.0,71,0.00,,,0.00,Wunderground v.1.15,2013-08-28 16:50:00,
2013-08-28 12:55:00,79.3,69.9,29.99,SSE,152,0.0,2.0,73,0.00,,,0.00,Wunderground v.1.15,2013-08-28 16:55:00,
2013-08-28 13:00:00,79.2,69.4,29.98,SSE,165,0.0,0.0,72,0.00,,,0.00,Wunderground v.1.15,2013-08-28 17:00:00,
2013-08-28 13:05:00,79.2,69.4,29.98,SSE,165,0.0,1.0,72,0.00,,,0.00,Wunderground v.1.15,2013-08-28 17:05:00,
2013-08-28 13:10:00,79.1,68.9,29.98,SSE,151,0.0,0.0,71,0.00,,,0.00,Wunderground v.1.15,2013-08-28 17:10:00,
2013-08-28 13:15:00,79.5,69.7,29.98,SSE,150,0.0,0.0,72,0.00,,,0.00,Wunderground v.1.15,2013-08-28 17:15:00,
2013-08-28 13:25:00,80.5,68.5,29.98,South,178,1.0,4.0,67,0.00,,,0.00,Wunderground v.1.15,2013-08-28 17:25:00,
2013-08-28 13:30:00,81.5,70.3,29.98,West,273,1.0,2.0,69,0.00,,,0.00,Wunderground v.1.15,2013-08-28 17:30:00,
2013-08-28 13:40:00,81.4,68.5,29.98,WSW,249,1.0,1.0,65,0.00,,,0.00,Wunderground v.1.15,2013-08-28 17:40:00,
2013-08-28 13:45:00,81.1,69.1,29.98,WNW,301,1.0,1.0,67,0.00,,,0.00,Wunderground v.1.15,2013-08-28 17:45:00,
2013-08-28 13:50:00,80.8,69.2,29.97,South,181,0.0,0.0,68,0.00,,,0.00,Wunderground v.1.15,2013-08-28 17:50:00,
2013-08-28 13:55:00,80.6,69.1,29.98,WSW,257,0.0,0.0,68,0.00,,,0.00,Wunderground v.1.15,2013-08-28 17:55:00,
2013-08-28 14:00:00,80.2,69.5,29.98,West,271,0.0,1.0,70,0.00,,,0.00,Wunderground v.1.15,2013-08-28 18:00:00,
2013-08-28 14:05:00,80.0,69.7,29.97,NW,304,0.0,1.0,71,0.00,,,0.00,Wunderground v.1.15,2013-08-28 18:05:00,
2013-08-28 14:10:00,79.7,69.5,29.98,NW,304,0.0,0.0,71,0.00,,,0.00,Wunderground v.1.15,2013-08-28 18:10:00,
2013-08-28 14:20:00,79.6,69.8,29.97,WNW,303,0.0,0.0,72,0.00,,,0.00,Wunderground v.1.15,2013-08-28 18:20:00,
2013-08-28 14:25:00,79.4,69.6,29.97,WNW,298,0.0,0.0,72,0.00,,,0.00,Wunderground v.1.15,2013-08-28 18:25:00,
2013-08-28 14:30:00,79.3,70.3,29.97,WNW,292,0.0,0.0,74,0.00,,,0.00,Wunderground v.1.15,2013-08-28 18:30:00,
2013-08-28 14:35:00,79.3,70.3,29.97,WNW,292,0.0,0.0,74,0.00,,,0.00,Wunderground v.1.15,2013-08-28 18:35:00,
2013-08-28 14:40:00,79.5,69.3,29.97,WNW,284,0.0,0.0,71,0.00,,,0.00,Wunderground v.1.15,2013-08-28 18:40:00,
2013-08-28 14:45:00,79.7,69.5,29.97,South,173,0.0,0.0,71,0.00,,,0.00,Wunderground v.1.15,2013-08-28 18:45:00,
2013-08-28 14:50:00,79.9,69.2,29.97,South,173,0.0,0.0,70,0.00,,,0.00,Wunderground v.1.15,2013-08-28 18:50:00,
2013-08-28 15:00:00,79.8,69.1,29.97,South,173,0.0,0.0,70,0.00,,,0.00,Wunderground v.1.15,2013-08-28 19:00:00,
2013-08-28 15:05:00,79.8,69.6,29.97,South,173,0.0,0.0,71,0.00,,,0.00,Wunderground v.1.15,2013-08-28 19:05:00,
2013-08-28 15:10:00,80.1,69.8,29.97,South,173,0.0,0.0,71,0.00,,,0.00,Wunderground v.1.15,2013-08-28 19:10:00,
2013-08-28 15:15:00,80.6,69.9,29.97,NNW,331,0.0,0.0,70,0.00,,,0.00,Wunderground v.1.15,2013-08-28 19:15:00,
2013-08-28 15:20:00,81.0,69.0,29.97,NE,46,1.0,3.0,67,0.00,,,0.00,Wunderground v.1.15,2013-08-28 19:20:00,
2013-08-28 15:25:00,80.9,69.3,29.97,East,82,1.0,3.0,68,0.00,,,0.00,Wunderground v.1.15,2013-08-28 19:25:00,
2013-08-28 15:30:00,81.0,69.0,29.97,East,101,2.0,3.0,67,0.00,,,0.00,Wunderground v.1.15,2013-08-28 19:30:00,
2013-08-28 15:35:00,80.9,68.9,29.97,East,84,2.0,3.0,67,0.00,,,0.00,Wunderground v.1.15,2013-08-28 19:35:00,
2013-08-28 15:40:00,80.2,69.1,29.97,ESE,115,2.0,3.0,69,0.00,,,0.00,Wunderground v.1.15,2013-08-28 19:40:00,
2013-08-28 15:45:00,79.7,68.6,29.97,SE,142,3.0,3.0,69,0.00,,,0.00,Wunderground v.1.15,2013-08-28 19:45:00,
2013-08-28 15:50:00,79.4,69.6,29.97,ESE,108,3.0,3.0,72,0.00,,,0.00,Wunderground v.1.15,2013-08-28 19:50:00,
2013-08-28 15:55:00,79.5,69.3,29.96,ESE,105,2.0,3.0,71,0.00,,,0.00,Wunderground v.1.15,2013-08-28 19:55:00,
2013-08-28 16:00:00,79.3,69.9,29.96,ESE,109,2.0,2.0,73,0.00,,,0.00,Wunderground v.1.15,2013-08-28 20:00:00,
2013-08-28 16:05:00,79.1,70.5,29.96,ESE,103,1.0,2.0,75,0.00,,,0.00,Wunderground v.1.15,2013-08-28 20:05:00,
2013-08-28 16:10:00,79.2,69.8,29.96,South,171,2.0,3.0,73,0.00,,,0.00,Wunderground v.1.15,2013-08-28 20:10:00,
2013-08-28 16:15:00,79.4,70.0,29.96,SE,138,2.0,3.0,73,0.00,,,0.00,Wunderground v.1.15,2013-08-28 20:15:00,
2013-08-28 16:20:00,79.6,69.4,29.96,SE,146,3.0,3.0,71,0.00,,,0.00,Wunderground v.1.15,2013-08-28 20:20:00,
2013-08-28 16:25:00,79.7,69.5,29.97,SE,140,3.0,4.0,71,0.00,,,0.00,Wunderground v.1.15,2013-08-28 20:25:00,
2013-08-28 16:30:00,79.9,69.7,29.97,East,88,2.0,5.0,71,0.00,,,0.00,Wunderground v.1.15,2013-08-28 20:30:00,
2013-08-28 16:35:00,79.2,68.1,29.96,South,173,4.0,5.0,69,0.00,,,0.00,Wunderground v.1.15,2013-08-28 20:35:00,
2013-08-28 16:40:00,79.1,69.3,29.96,ESE,105,5.0,5.0,72,0.00,,,0.00,Wunderground v.1.15,2013-08-28 20:40:00,
2013-08-28 16:45:00,78.7,69.3,29.96,SE,146,4.0,5.0,73,0.00,,,0.00,Wunderground v.1.15,2013-08-28 20:45:00,
2013-08-28 16:50:00,78.5,69.1,29.97,ENE,68,4.0,9.0,73,0.00,,,0.00,Wunderground v.1.15,2013-08-28 20:50:00,
2013-08-28 16:55:00,78.1,69.5,29.97,ESE,115,4.0,9.0,75,0.00,,,0.00,Wunderground v.1.15,2013-08-28 20:55:00,
2013-08-28 17:00:00,77.6,69.0,29.97,ESE,103,5.0,5.0,75,0.00,,,0.00,Wunderground v.1.15,2013-08-28 21:00:00,
2013-08-28 17:05:00,77.4,69.6,29.98,East,95,4.0,5.0,77,0.00,,,0.00,Wunderground v.1.15,2013-08-28 21:05:00,
2013-08-28 17:10:00,77.4,69.2,29.97,ESE,105,4.0,4.0,76,0.00,,,0.00,Wunderground v.1.15,2013-08-28 21:10:00,
2013-08-28 17:15:00,77.3,68.8,29.97,ESE,119,4.0,7.0,75,0.00,,,0.00,Wunderground v.1.15,2013-08-28 21:15:00,
2013-08-28 17:20:00,77.3,68.8,29.96,South,177,4.0,7.0,75,0.00,,,0.00,Wunderground v.1.15,2013-08-28 21:20:00,
2013-08-28 17:25:00,77.2,68.7,29.97,ESE,107,4.0,7.0,75,0.00,,,0.00,Wunderground v.1.15,2013-08-28 21:25:00,
2013-08-28 17:30:00,77.0,68.9,29.98,ESE,121,5.0,7.0,76,0.00,,,0.00,Wunderground v.1.15,2013-08-28 21:30:00,
2013-08-28 17:35:00,76.6,68.8,29.98,SW,219,5.0,7.0,77,0.00,,,0.00,Wunderground v.1.15,2013-08-28 21:35:00,
2013-08-28 17:40:00,76.2,68.8,29.98,SSE,151,4.0,4.0,78,0.00,,,0.00,Wunderground v.1.15,2013-08-28 21:40:00,
2013-08-28 17:45:00,75.8,68.4,29.98,East,88,3.0,4.0,78,0.00,,,0.00,Wunderground v.1.15,2013-08-28 21:45:00,
2013-08-28 17:50:00,75.4,68.4,29.98,ESE,113,3.0,5.0,79,0.00,,,0.00,Wunderground v.1.15,2013-08-28 21:50:00,
2013-08-28 17:55:00,75.1,68.5,29.98,East,94,3.0,5.0,80,0.00,,,0.00,Wunderground v.1.15,2013-08-28 21:55:00,
2013-08-28 18:00:00,75.2,68.6,29.99,ESE,123,3.0,6.0,80,0.00,,,0.00,Wunderground v.1.15,2013-08-28 22:00:00,
2013-08-28 18:10:00,74.2,66.5,30.00,NNE,21,5.0,7.0,77,0.00,,,0.00,Wunderground v.1.15,2013-08-28 22:10:00,
2013-08-28 18:15:00,71.5,65.0,30.01,East,82,7.0,10.0,80,0.00,,,0.00,Wunderground v.1.15,2013-08-28 22:15:00,
2013-08-28 18:20:00,68.8,64.1,30.01,NE,44,8.0,8.0,85,0.00,,,0.01,Wunderground v.1.15,2013-08-28 22:20:00,
2013-08-28 18:25:00,66.4,62.7,30.03,NE,53,7.0,8.0,88,0.41,,,0.04,Wunderground v.1.15,2013-08-28 22:25:00,
2013-08-28 18:30:00,65.4,62.4,30.04,NE,35,6.0,6.0,90,0.52,,,0.07,Wunderground v.1.15,2013-08-28 22:30:00,
2013-08-28 18:35:00,64.7,61.7,30.04,East,94,4.0,6.0,90,0.64,,,0.13,Wunderground v.1.15,2013-08-28 22:35:00,
2013-08-28 18:40:00,64.2,61.2,30.03,East,101,4.0,5.0,90,0.74,,,0.18,Wunderground v.1.15,2013-08-28 22:40:00,
2013-08-28 18:45:00,63.8,60.8,30.02,South,173,6.0,6.0,90,0.84,,,0.25,Wunderground v.1.15,2013-08-28 22:45:00,
2013-08-28 18:50:00,63.7,60.7,30.02,ESE,117,7.0,7.0,90,1.01,,,0.33,Wunderground v.1.15,2013-08-28 22:50:00,
2013-08-28 18:55:00,64.1,60.8,30.02,SE,129,6.0,7.0,89,1.04,,,0.40,Wunderground v.1.15,2013-08-28 22:55:00,
2013-08-28 19:00:00,64.4,60.8,30.02,NNW,329,3.0,3.0,88,0.98,,,0.50,Wunderground v.1.15,2013-08-28 23:00:00,
2013-08-28 19:05:00,64.4,61.1,30.01,SSW,213,1.0,3.0,89,0.96,,,0.57,Wunderground v.1.15,2013-08-28 23:05:00,
2013-08-28 19:10:00,64.3,61.0,30.02,SW,214,1.0,2.0,89,1.02,,,0.65,Wunderground v.1.15,2013-08-28 23:10:00,
2013-08-28 19:15:00,64.2,60.9,30.02,SSW,213,1.0,2.0,89,0.84,,,0.72,Wunderground v.1.15,2013-08-28 23:15:00,
2013-08-28 19:20:00,64.2,60.6,30.02,SSW,213,1.0,1.0,88,0.83,,,0.80,Wunderground v.1.15,2013-08-28 23:20:00,
2013-08-28 19:30:00,64.2,60.2,30.03,SSW,213,0.0,0.0,87,0.76,,,0.93,Wunderground v.1.15,2013-08-28 23:30:00,
2013-08-28 19:35:00,64.3,60.3,30.03,SW,230,0.0,2.0,87,0.72,,,0.99,Wunderground v.1.15,2013-08-28 23:35:00,
2013-08-28 19:45:00,64.2,60.2,30.04,West,266,0.0,0.0,87,0.58,,,1.09,Wunderground v.1.15,2013-08-28 23:45:00,
2013-08-28 19:50:00,64.3,60.0,30.04,SSW,213,0.0,1.0,86,0.31,,,1.12,Wunderground v.1.15,2013-08-28 23:50:00,
2013-08-28 20:00:00,64.3,60.0,30.05,SSW,213,0.0,0.0,86,0.05,,,1.12,Wunderground v.1.15,2013-08-29 00:00:00,
2013-08-28 20:05:00,64.3,60.0,30.06,SSW,213,0.0,0.0,86,0.00,,,1.12,Wunderground v.1.15,2013-08-29 00:05:00,
2013-08-28 20:10:00,64.3,60.0,30.06,SSW,213,0.0,0.0,86,0.00,,,1.12,Wunderground v.1.15,2013-08-29 00:10:00,
2013-08-28 20:15:00,64.3,60.0,30.06,ENE,65,1.0,1.0,86,0.00,,,1.12,Wunderground v.1.15,2013-08-29 00:15:00,
2013-08-28 20:20:00,64.3,60.0,30.06,East,100,1.0,1.0,86,0.00,,,1.13,Wunderground v.1.15,2013-08-29 00:20:00,
2013-08-28 20:25:00,64.3,60.0,30.07,East,100,1.0,1.0,86,0.00,,,1.13,Wunderground v.1.15,2013-08-29 00:25:00,
2013-08-28 20:30:00,64.2,59.9,30.07,East,100,0.0,0.0,86,0.00,,,1.13,Wunderground v.1.15,2013-08-29 00:30:00,
2013-08-28 20:35:00,64.3,59.7,30.07,East,100,0.0,0.0,85,0.00,,,1.13,Wunderground v.1.15,2013-08-29 00:35:00,
2013-08-28 20:40:00,64.2,59.6,30.07,East,86,0.0,0.0,85,0.00,,,1.13,Wunderground v.1.15,2013-08-29 00:40:00,
2013-08-28 20:45:00,64.2,59.6,30.08,East,86,0.0,0.0,85,0.00,,,1.13,Wunderground v.1.15,2013-08-29 00:45:00,
2013-08-28 20:50:00,64.2,59.6,30.09,NNE,31,1.0,4.0,85,0.00,,,1.13,Wunderground v.1.15,2013-08-29 00:50:00,
2013-08-28 20:55:00,64.0,59.7,30.09,ENE,59,3.0,4.0,86,0.00,,,1.13,Wunderground v.1.15,2013-08-29 00:55:00,
2013-08-28 21:00:00,63.9,59.3,30.10,NE,55,3.0,3.0,85,0.00,,,1.13,Wunderground v.1.15,2013-08-29 01:00:00,
2013-08-28 21:05:00,63.9,59.3,30.09,NE,47,2.0,3.0,85,0.00,,,1.13,Wunderground v.1.15,2013-08-29 01:05:00,
2013-08-28 21:10:00,63.9,59.3,30.09,ENE,67,2.0,4.0,85,0.00,,,1.14,Wunderground v.1.15,2013-08-29 01:10:00,
2013-08-28 21:20:00,63.7,59.1,30.10,NE,47,3.0,3.0,85,0.00,,,1.14,Wunderground v.1.15,2013-08-29 01:20:00,
2013-08-28 21:25:00,63.7,59.1,30.10,NE,51,3.0,4.0,85,0.00,,,1.14,Wunderground v.1.15,2013-08-29 01:25:00,
2013-08-28 21:30:00,63.8,59.2,30.10,NE,49,3.0,4.0,85,0.00,,,1.14,Wunderground v.1.15,2013-08-29 01:30:00,
2013-08-28 21:35:00,63.8,58.9,30.10,ENE,66,3.0,4.0,84,0.00,,,1.14,Wunderground v.1.15,2013-08-29 01:35:00,
2013-08-28 21:40:00,63.8,58.9,30.10,NE,48,2.0,2.0,84,0.00,,,1.14,Wunderground v.1.15,2013-08-29 01:40:00,
2013-08-28 21:45:00,63.8,59.2,30.10,NE,52,1.0,2.0,85,0.00,,,1.14,Wunderground v.1.15,2013-08-29 01:45:00,
2013-08-28 21:50:00,63.8,58.9,30.10,ENE,61,1.0,1.0,84,0.00,,,1.14,Wunderground v.1.15,2013-08-29 01:50:00,
2013-08-28 21:55:00,63.8,58.9,30.09,South,170,0.0,1.0,84,0.00,,,1.15,Wunderground v.1.15,2013-08-29 01:55:00,
2013-08-28 22:00:00,63.7,59.1,30.10,North,5,1.0,1.0,85,0.32,,,1.17,Wunderground v.1.15,2013-08-29 02:00:00,
2013-08-28 22:05:00,63.8,59.2,30.11,ENE,64,2.0,2.0,85,0.55,,,1.21,Wunderground v.1.15,2013-08-29 02:05:00,
2013-08-28 22:10:00,63.8,59.2,30.12,East,94,1.0,1.0,85,0.55,,,1.25,Wunderground v.1.15,2013-08-29 02:10:00,
2013-08-28 22:15:00,63.7,59.1,30.12,ENE,72,1.0,1.0,85,0.46,,,1.29,Wunderground v.1.15,2013-08-29 02:15:00,
2013-08-28 22:20:00,63.6,59.0,30.12,ENE,72,0.0,0.0,85,0.40,,,1.33,Wunderground v.1.15,2013-08-29 02:20:00,
2013-08-28 22:25:00,63.6,59.0,30.12,ENE,72,0.0,0.0,85,0.26,,,1.35,Wunderground v.1.15,2013-08-29 02:25:00,
2013-08-28 22:30:00,63.7,59.1,30.12,ENE,72,0.0,0.0,85,0.09,,,1.36,Wunderground v.1.15,2013-08-29 02:30:00,
2013-08-28 22:40:00,63.6,59.0,30.12,ENE,72,0.0,0.0,85,0.06,,,1.36,Wunderground v.1.15,2013-08-29 02:40:00,
2013-08-28 22:45:00,63.7,59.1,30.12,ENE,72,0.0,0.0,85,0.04,,,1.37,Wunderground v.1.15,2013-08-29 02:45:00,
2013-08-28 22:50:00,63.6,59.0,30.12,ENE,72,0.0,0.0,85,0.08,,,1.38,Wunderground v.1.15,2013-08-29 02:50:00,
2013-08-28 22:55:00,63.6,59.0,30.12,ENE,72,0.0,0.0,85,0.08,,,1.38,Wunderground v.1.15,2013-08-29 02:55:00,
2013-08-28 23:00:00,63.6,58.7,30.12,ENE,72,0.0,0.0,84,0.08,,,1.39,Wunderground v.1.15,2013-08-29 03:00:00,
2013-08-28 23:10:00,63.6,58.7,30.12,ENE,72,0.0,0.0,84,0.05,,,1.40,Wunderground v.1.15,2013-08-29 03:10:00,
2013-08-28 23:20:00,63.6,58.7,30.11,ENE,72,0.0,0.0,84,0.06,,,1.40,Wunderground v.1.15,2013-08-29 03:20:00,
2013-08-28 23:25:00,63.6,58.7,30.11,ENE,72,0.0,0.0,84,0.06,,,1.41,Wunderground v.1.15,2013-08-29 03:25:00,
2013-08-28 23:35:00,63.5,58.6,30.10,ENE,72,0.0,0.0,84,0.07,,,1.42,Wunderground v.1.15,2013-08-29 03:35:00,
2013-08-28 23:40:00,63.5,58.6,30.10,ENE,72,0.0,0.0,84,0.05,,,1.42,Wunderground v.1.15,2013-08-29 03:40:00,
2013-08-28 23:45:00,63.5,58.6,30.10,ENE,72,0.0,0.0,84,0.04,,,1.42,Wunderground v.1.15,2013-08-29 03:45:00,
2013-08-28 23:50:00,63.5,58.6,30.10,ENE,72,0.0,0.0,84,0.00,,,1.42,Wunderground v.1.15,2013-08-29 03:50:00,
2013-08-28 23:55:00,63.5,58.6,30.09,ENE,72,0.0,0.0,84,0.00,,,1.42,Wunderground v.1.15,2013-08-29 03:55:00,